General Mariano Matamoros Airport

Jump to: basic info | weather | frequencies | runways | comments

Related pages: nearby airports | nearby navaids | notams | map

Basic information (top)

Codes: CVJ MMCB
Location: lon 18.834801, lat -99.261299, elev 4,277 ft / 1,304 m msl
Status: medium_airport
Scheduled airline service: yes
Links: Wikipedia Mobile

Weather (top)

Current conditions (rec'd 2014/12/19 04:41Z):

MMCB 190441Z 00000KT 7SM SKC 18/11 A3013 RMK HZY

Airport forecast (rec'd 2014/12/12 18:21Z):

TAF MMCB 121718Z 1218/1318 12008KT P6SM BKN100 BKN250 
     FM130600 00000KT P6SM BKN250 
     FM131700 12007KT P6SM BKN120 BKN250

Frequencies (top)

Verify before use: may be inaccurate or out of date.

APP: 128.9 MHz (TOLUCA APP)
TWR: 118.35 MHz (CUERNAVACA TWR)

Runways (top)

02/20: 9,439 x 148 ft (2,877 x 45 m) — paved — lighted — threshold 20 displaced 260 ft (79 m)

Latest comments (top)

No comments yet for General Mariano Matamoros Airport

More... (top)

See also NOTAMs and nearby airports and navaids, or visit the General Mariano Matamoros Airport page at the main OurAirports website..